[[[{"header":{"parameterUnit":"kt","parameterCategory":2,"dx":1,"dy":1,"la1":30.253999710083008,"la2":30.299108505249023,"lo1":-89.0895004272461,"lo2":-89.04439544677734,"nx":28,"ny":28,"refTime":"2022-10-29T21:00:00:Z","depth":0,"parameterNumber":1,"parameterNumberName":"U-component_of_WINDS"},"data":[5.1845,5.1998,5.2032,5.2225,5.2288,5.2427,5.2488,5.2571,5.2648,5.282,5.2927,5.2981,5.3074,5.3213,5.3333,5.3356,5.3404,5.3432,5.3454,5.3293,5.3273,5.3254,5.3218,5.3442,5.3443,5.3615,5.3617,5.3618,5.1722,5.1785,5.1897,5.2028,5.2125,5.2118,5.2224,5.2306,5.2432,5.2528,5.2635,5.2792,5.2922,5.3009,5.3141,5.3218,5.3224,5.3251,5.3246,5.3261,5.309,5.3051,5.3244,5.3244,5.3244,5.3244,5.3243,5.3243,5.1507,5.1597,5.1696,5.1818,5.1895,5.1984,5.2078,5.214,5.2253,5.2392,5.2415,5.256,5.2665,5.2845,5.2916,5.3032,5.301,5.3052,5.3063,5.3072,5.3077,5.2821,5.3057,5.3057,5.3056,5.3056,5.3056,0,5.1359,5.1381,5.1491,5.1611,5.1702,5.18,5.1896,5.1956,5.202,5.2111,5.2247,5.2332,5.2502,5.2636,5.277,5.2836,5.2843,5.2848,5.2878,5.2867,5.2839,5.2855,5.2574,5.2841,5.284,5.2839,5.2838,5.2837,5.1144,5.1247,5.1368,5.144,5.1501,5.1619,5.1696,5.1745,5.1826,5.1954,5.2035,5.2169,5.2279,5.2496,5.2574,5.2703,5.2708,5.2805,5.2728,5.2712,5.2709,5.2702,5.2712,5.2819,5.2821,5.2823,5.2825,0,5.102,5.1075,5.1246,5.1357,5.1388,5.1495,5.1592,5.1687,5.1739,5.1878,5.1914,5.1996,5.2132,5.2194,5.2363,5.2392,5.2573,5.2575,5.2536,5.2539,5.2633,5.2623,5.2927,5.2969,5.2738,5.274,5.2741,0,5.0858,5.0992,5.1067,5.1164,5.1315,5.1358,5.1508,5.1566,5.1656,5.1767,5.1781,5.1885,5.1948,5.2063,5.2106,5.2266,5.2298,5.233,5.234,5.2328,5.2324,5.2374,5.2363,5.2359,5.2357,5.2356,5.2355,0,5.0657,5.0855,5.1011,5.1066,5.1199,5.1273,5.1332,5.1433,5.1511,5.1622,5.1673,5.1801,5.1871,5.1971,5.2024,5.1969,5.2222,5.2157,5.2254,5.2253,5.2307,5.2303,5.2556,5.2352,5.2352,5.2352,5.2351,0,5.0535,5.064,5.0859,5.097,5.1021,5.1126,5.125,5.1354,5.1461,5.1493,5.1582,5.1599,5.1744,5.1675,5.1876,5.1788,5.1857,5.1901,5.1909,5.1926,5.1847,5.1981,5.2215,5.2242,5.1941,5.1938,5.1935,0,5.0289,5.0524,5.0562,5.077,5.0887,5.0893,5.1011,5.1104,5.1156,5.1266,5.1326,5.1453,5.1414,5.1463,5.1554,5.1622,5.1736,5.1609,5.1772,5.1777,5.1741,5.1958,5.1976,5.2156,5.1892,5.1897,5.19,0,5.0105,5.0262,5.0297,5.036,5.0487,5.0587,5.0722,5.0855,5.0925,5.103,5.1146,5.1327,5.1305,5.1385,5.1414,5.1506,5.1661,5.1471,5.1475,5.1503,5.1876,5.1893,5.1923,5.166,5.1666,5.167,5.1866,0,4.9907,5.0032,5.0127,5.0267,5.0353,5.0487,5.0547,5.063,5.0646,5.0698,5.0872,5.0968,5.1108,5.1159,5.1178,5.1368,5.1346,5.1322,5.126,5.1402,5.1468,5.1495,5.1155,5.1154,5.1153,5.1152,0,0,4.9658,4.9837,4.9874,5.0005,5.008,5.0083,5.0222,5.0296,5.0447,5.0499,5.0464,5.0732,5.0813,5.1018,5.1067,5.1124,5.1165,5.1113,5.1334,5.1354,5.1372,5.1442,5.1469,5.115,5.1149,5.1149,5.1149,0,4.9597,4.967,4.9804,4.9881,4.9996,5.0043,5.0076,5.0192,5.0232,5.0401,5.0406,5.0518,5.0732,5.0816,5.0887,5.1089,5.1089,5.1128,5.1214,5.1319,5.1341,5.136,5.1433,5.1458,5.1146,5.1146,5.1146,0,4.9426,4.9509,4.9579,4.9746,4.9823,4.9945,4.9892,5.0023,5.0115,5.0118,5.0286,5.0349,5.0468,5.0653,5.0739,5.071,5.1015,5.0931,5.0941,5.0952,5.1057,5.1083,5.1106,5.0803,5.0801,5.08,0,0,4.9366,4.9482,4.9586,4.9738,4.9785,4.9858,4.9929,4.9952,5.0055,5.0096,5.0176,5.0279,5.0404,5.0486,5.0607,5.0802,5.0831,5.0886,5.0902,5.0915,5.0933,5.1042,5.1067,5.0794,5.0794,5.0794,0,0,4.9339,4.9463,4.946,4.9643,4.9738,4.9855,4.9947,4.9947,5.0061,5.0053,5.0103,5.0133,5.0308,5.037,5.0287,5.0587,5.0524,5.0545,5.0539,5.056,5.0576,5.0558,5.0251,0,0,0,0,0,4.9306,4.9447,4.9443,4.9482,4.9696,4.9856,4.9884,4.9925,4.9879,4.9951,5.0018,5.0012,5.0336,5.0264,5.0305,5.0397,5.0722,5.0735,5.0747,5.0785,5.0807,5.0825,0,0,0,0,0,0,4.9322,4.937,4.9439,4.956,4.9608,4.9851,4.9781,4.9797,4.9872,4.9868,4.9999,5.0016,5.0058,5.0246,5.0282,5.0369,5.0239,5.0727,5.0738,5.0748,5.0793,5.081,5.0826,0,0,0,0,0,4.9335,4.9374,4.9704,4.9558,4.9601,4.9689,4.9776,4.9789,4.9848,4.9952,4.9969,4.9872,5.0059,5.0093,5.0268,5.0351,5.0214,5.0227,5.0734,5.0743,5.075,5.0801,0,0,0,0,0,0,4.9344,4.9388,4.9714,4.9728,4.9507,4.9676,4.9704,4.9781,4.9929,4.9946,4.9828,4.9823,5.0062,5.0087,5.0113,5.0342,5.0194,5.0207,5.0216,5.0741,5.0747,5.0753,0,0,0,0,0,0,4.9367,4.94,4.9721,4.9654,4.9662,4.9665,4.9689,4.9845,4.9931,4.9796,4.9796,4.9824,5.0024,5.0084,5.0104,5.0346,5.0178,5.0191,5.02,5.0206,5.0746,5.0751,0,0,0,0,0,0,4.9382,4.941,4.9651,4.9657,4.9663,4.983,4.9804,5.0022,4.9868,4.979,4.9855,4.985,5.0022,5.0043,5.0098,5.0332,5.0342,5.0178,5.0187,5.0194,5.0198,0,0,0,0,0,0,0,4.9394,4.9194,4.9627,4.9658,4.9664,4.9863,4.9867,4.9871,4.9866,4.9862,4.9857,4.9852,5.0103,5.0118,5.0132,5.032,0,0,5.0177,5.0183,0,0,0,0,0,0,0,0,4.9183,4.9191,4.9627,4.963,4.9633,4.9864,4.9867,4.987,4.9866,4.9862,4.9858,4.9854,5.0107,5.0119,5.0131,0,0,0,0,0,0,0,0,0,0,0,0,0,0,0,4.9628,4.963,0,4.9864,4.9867,4.9869,4.9865,4.9862,4.9859,4.9856,5.0111,5.012,5.013,0,0,0,0,0,0,0,0,0,0,0,0,0,0,0,0,0,0,0,0,0,0,0,0,0,0,0,0,0,0,0,0,0,0,0,0,0,0,0,0,0,0,0,0,0,0,0,0,0,0,0,0,0,0,0,0,0,0,0,0,0,0,0,0,0,0,0,0,0]}],[{"header":{"parameterUnit":"kt","parameterCategory":2,"dx":1,"dy":1,"la1":30.253999710083008,"la2":30.299108505249023,"lo1":-89.0895004272461,"lo2":-89.04439544677734,"nx":28,"ny":28,"refTime":"2022-10-29T21:00:00:Z","depth":0,"parameterNumber":2,"parameterNumberName":"V-component_of_WINDS"},"data":[4.7371,4.7442,4.7465,4.7554,4.7589,4.7653,4.7682,4.7722,4.7759,4.7834,4.7881,4.7909,4.7953,4.8011,4.806,4.8071,4.8089,4.8095,4.8106,4.806,4.8055,4.805,4.8036,4.81,4.81,4.815,4.8151,4.8151,4.7327,4.7364,4.742,4.7489,4.7535,4.7542,4.7596,4.7633,4.7689,4.7736,4.7785,4.7852,4.7907,4.795,4.8006,4.8035,4.804,4.8048,4.8045,4.8051,4.8003,4.7987,4.8042,4.8042,4.8042,4.8042,4.8042,4.8042,4.7253,4.7296,4.7352,4.7413,4.7454,4.75,4.7542,4.7579,4.7631,4.7697,4.7714,4.7777,4.7826,4.7906,4.7938,4.7985,4.798,4.7995,4.7998,4.8001,4.8,4.7917,4.7996,4.7996,4.7995,4.7995,4.7995,0,4.7206,4.7224,4.7281,4.7343,4.7389,4.7439,4.7489,4.7516,4.756,4.7602,4.7663,4.7702,4.7777,4.7835,4.7894,4.7925,4.7934,4.7939,4.7949,4.794,4.7923,4.793,4.7847,4.7937,4.7936,4.7936,4.7936,4.7936,4.7131,4.7179,4.7252,4.7288,4.7323,4.738,4.7419,4.7455,4.7494,4.7559,4.7593,4.7654,4.7704,4.7797,4.7836,4.7892,4.7897,4.7928,4.7905,4.7894,4.7894,4.789,4.7892,4.7931,4.7932,4.7932,4.7932,0,4.7085,4.7127,4.721,4.7278,4.7296,4.7343,4.74,4.7443,4.7474,4.7537,4.7554,4.7602,4.7661,4.7697,4.7772,4.7789,4.7858,4.7863,4.7839,4.7841,4.787,4.7866,4.7966,4.7979,4.7916,4.7917,4.7917,0,4.7036,4.7098,4.7156,4.7203,4.7271,4.7308,4.7374,4.7409,4.7457,4.7506,4.7526,4.7572,4.7612,4.7662,4.7687,4.7751,4.7766,4.7781,4.7786,4.7778,4.7776,4.7797,4.7793,4.7802,4.7801,4.7801,4.78,0,4.6958,4.7065,4.7141,4.7172,4.7252,4.7285,4.732,4.7375,4.7413,4.7468,4.7492,4.7553,4.7586,4.763,4.7662,4.7645,4.7743,4.7726,4.7758,4.7757,4.7777,4.7775,4.7855,4.7799,4.7799,4.7799,4.7799,0,4.6925,4.6985,4.709,4.7156,4.7183,4.7233,4.7297,4.7349,4.7405,4.7426,4.7469,4.7487,4.755,4.753,4.7615,4.7583,4.7613,4.7634,4.7637,4.7644,4.762,4.7657,4.7732,4.774,4.7649,4.7648,4.7647,0,4.6821,4.6942,4.6976,4.7075,4.7135,4.7155,4.721,4.7262,4.7294,4.7347,4.7382,4.7442,4.7436,4.746,4.7497,4.7534,4.7575,4.753,4.7599,4.7601,4.7581,4.7651,4.7653,4.7712,4.7632,4.7634,4.7635,0,4.6748,4.685,4.6866,4.6902,4.6981,4.7033,4.7097,4.7168,4.7201,4.7259,4.7311,4.7399,4.7396,4.7437,4.7459,4.7496,4.7548,4.7489,4.7491,4.7495,4.7629,4.7629,4.7639,4.7554,4.7556,4.7558,4.7623,0,4.6681,4.675,4.6795,4.688,4.6927,4.6993,4.7039,4.7081,4.7098,4.7132,4.7212,4.7266,4.7337,4.736,4.7379,4.7454,4.7446,4.7444,4.7427,4.7474,4.7495,4.7505,4.7389,4.7389,4.7389,4.7389,0,0,4.657,4.667,4.6709,4.6777,4.6818,4.6841,4.6907,4.695,4.7037,4.7063,4.7055,4.7187,4.7232,4.7324,4.7343,4.7373,4.7389,4.7373,4.7452,4.7458,4.7465,4.7488,4.7497,4.7388,4.7388,4.7388,4.7388,0,4.6556,4.6608,4.6676,4.6723,4.6795,4.683,4.6846,4.692,4.6946,4.7028,4.7043,4.7097,4.7205,4.7249,4.7285,4.7362,4.737,4.7381,4.7406,4.7448,4.7455,4.7462,4.7485,4.7494,4.7388,4.7388,4.7388,0,4.6489,4.6546,4.6586,4.6687,4.6735,4.6798,4.6791,4.686,4.6906,4.6927,4.7008,4.7044,4.7109,4.7193,4.7233,4.7225,4.7349,4.7321,4.7323,4.7328,4.737,4.7379,4.7386,4.7286,4.7285,4.7285,0,0,4.647,4.6536,4.661,4.6688,4.6716,4.677,4.681,4.6833,4.6893,4.6917,4.6965,4.7021,4.7083,4.7123,4.7185,4.7272,4.7286,4.7306,4.7311,4.7315,4.7322,4.7365,4.7373,4.7283,4.7283,4.7283,0,0,4.6461,4.6551,4.656,4.6656,4.6714,4.6791,4.6835,4.6847,4.6908,4.6905,4.6946,4.6962,4.7042,4.7078,4.7046,4.7178,4.7161,4.717,4.7153,4.7159,4.7164,4.7153,4.7046,0,0,0,0,0,4.6472,4.654,4.6547,4.657,4.67,4.6787,4.6803,4.684,4.6826,4.6859,4.69,4.6908,4.7068,4.704,4.7061,4.7097,4.7257,4.7261,4.7266,4.7265,4.7271,4.7277,0,0,0,0,0,0,4.6481,4.651,4.6545,4.6625,4.6654,4.6785,4.6768,4.678,4.6823,4.6823,4.69,4.6911,4.6942,4.7032,4.705,4.7084,4.704,4.7258,4.7262,4.7266,4.7267,4.7272,4.7277,0,0,0,0,0,4.6489,4.6512,4.6711,4.6624,4.665,4.6714,4.6766,4.6776,4.6809,4.6876,4.6887,4.6833,4.6942,4.696,4.7043,4.7074,4.7027,4.7034,4.7261,4.7264,4.7267,4.7269,0,0,0,0,0,0,4.6495,4.6521,4.6717,4.6726,4.6602,4.6707,4.6726,4.6772,4.686,4.6872,4.6811,4.681,4.6943,4.6957,4.697,4.7069,4.7017,4.7024,4.7028,4.7263,4.7266,4.7268,0,0,0,0,0,0,4.6508,4.6528,4.6722,4.6693,4.6699,4.6701,4.6717,4.6794,4.6861,4.679,4.6792,4.6809,4.6921,4.6955,4.6965,4.7084,4.7009,4.7016,4.702,4.7023,4.7265,4.7267,0,0,0,0,0,0,4.6517,4.6534,4.669,4.6695,4.67,4.6804,4.6769,4.6899,4.6838,4.6786,4.6833,4.6831,4.6919,4.6931,4.6962,4.7075,4.7081,4.7009,4.7014,4.7017,4.7019,0,0,0,0,0,0,0,4.6524,4.6403,4.6664,4.6697,4.6702,4.6809,4.6812,4.6814,4.6838,4.6836,4.6834,4.6832,4.6972,4.6979,4.6986,4.7069,0,0,4.7009,4.7012,0,0,0,0,0,0,0,0,4.6397,4.6402,4.6664,4.6666,4.6668,4.681,4.6812,4.6814,4.6837,4.6836,4.6834,4.6833,4.6973,4.6979,4.6985,0,0,0,0,0,0,0,0,0,0,0,0,0,0,0,4.6665,4.6666,0,4.681,4.6812,4.6813,4.6837,4.6836,4.6835,4.6833,4.6975,4.698,4.6985,0,0,0,0,0,0,0,0,0,0,0,0,0,0,0,0,0,0,0,0,0,0,0,0,0,0,0,0,0,0,0,0,0,0,0,0,0,0,0,0,0,0,0,0,0,0,0,0,0,0,0,0,0,0,0,0,0,0,0,0,0,0,0,0,0,0,0,0,0]}]]]